{"data":{"norad_id":56185,"intl_designator":"2023-054H","name":"BRO-9","alt_names":[],"object_type":"PAYLOAD","status":"ACTIVE","operator":null,"country":"FR","launch_date":"2023-04-15","launch_site_code":"AFWTR","launch_vehicle":null,"mission":null,"orbit_class":"UNKNOWN","rcs_meters":null,"size_class":null,"mass_kg":null,"dimensions":null,"purposes":[],"wikipedia_slug":null,"has_3d_model":false,"image_url":null,"decayed_at":null,"tle_current":{"epoch":"2026-06-24T09:05:50.930016Z","epoch_age_seconds":7800603,"freshness":"OLD","line1":"1 56185U 23054H   26175.37906169  .07230581  24741-5  71881-3 0  9998","line2":"2 56185  97.2846  94.7711 0013592 210.9283 149.1217 16.37917889180257","mean_motion":16.37917889,"eccentricity":0.0013592,"inclination_deg":97.2846,"raan_deg":94.7711,"arg_perigee_deg":210.9283,"mean_anomaly_deg":149.1217,"bstar":0.00071881,"rev_number":18025,"period_min":87.91649506186,"perigee_km":162.44501656194,"apogee_km":180.24913407229,"semimajor_km":6549.4840753171,"source":"CELESTRAK","updated_at":"2026-06-25T09:00:17.681320Z"}}}